User: anonymous   Login
Location: Jackson Park
(37.2862°N, 79.9123°W)
Time: 05:55:23
(UTC+00:00)
Language:

A-11 Canister half - Orbit

View from above orbital plane
View from above orbital plane
View from above satellite
View from above satellite

Ground track
Ground track

The orbit is defined by the following mean orbital elements,

1 00053U          26129.90018231 +.00000000 +00000-0 +77048-3 0 00004
2 00053  47.2763 100.4362 0101211 322.2220  37.1496 12.17411115    08
Epoch (UTC): 09 May 2026 21:36:15
Eccentricity: 0.0101211
inclination: 47.2763°
perigee height: 1523 km
apogee height: 1685 km
right ascension of ascending node: 100.4362°
argument of perigee: 322.2220°
revolutions per day: 12.17411115
mean anomaly at epoch: 37.1496°

The dashed part of the orbit path shows where the satellite is in the earth's shadow,  

DLR